Date String (YYYY-MM-DD hh:mm:ss) UTC,Instrument flags,Ambient pressure (hPa),Sample flow (lpm),Bypass flow (lpm),Sample temperature (°C),Ambient temperature (°C),ASC tube jacket temperature (°C),LED temperature (°C),Box temperature (°C),Sample RH (%),Span deviation,Mass concentration (μg/m³),Mass concentration (μg/m³),Mass concentration (μg/m³)
DateTimeUTC,F1_M11,P_M11,Q1_M11,Q2_M11,T1_M11,T2_M11,T3_M11,T4_M11,T5_M11,U1_M11,ZSPAN_M11,X0_M11,X2_M11,X1_M11
2021-09-30 03:00:00,,0830.6,5.00,0.00,30.2,29.4,00.0,39.4,32.0,18.5,0000.0,0008.28,0003.40,0002.91
2021-09-30 03:01:00,,0830.6,5.00,0.00,30.2,29.4,00.0,39.4,32.0,18.4,0000.0,0008.39,0003.43,0002.95
2021-09-30 03:02:00,,0830.6,5.00,0.00,30.2,29.4,00.0,39.4,32.0,18.3,0000.0,0008.64,0003.47,0002.97
2021-09-30 03:03:00,,0830.6,5.00,0.00,30.2,29.4,00.0,39.4,32.0,18.3,0000.0,0009.21,0003.51,0002.99
2021-09-30 03:04:00,,0830.6,5.01,0.00,30.2,29.4,00.0,39.4,32.0,18.4,0000.0,0009.55,0003.54,0003.00
2021-09-30 03:05:00,,0830.6,4.99,0.00,30.2,29.4,00.0,39.4,32.0,18.5,0000.0,0009.24,0003.55,0003.02
2021-09-30 03:06:00,,0830.6,5.00,0.00,30.2,29.4,00.0,39.4,32.0,18.4,0000.0,0009.20,0003.55,0003.03
2021-09-30 03:07:00,,0830.6,5.00,0.00,30.2,29.4,00.0,39.4,32.0,18.3,0000.0,0009.28,0003.55,0003.04
2021-09-30 03:08:00,,0830.6,5.00,0.00,30.2,29.4,00.0,39.4,32.0,18.3,0000.0,0008.74,0003.55,0003.05
2021-09-30 03:09:00,,0830.6,5.01,0.00,30.2,29.4,00.0,39.4,32.0,18.5,0000.0,0008.75,0003.55,0003.06
2021-09-30 03:10:00,,0830.5,4.99,0.00,30.2,29.4,00.0,39.4,32.0,18.4,0000.0,0009.01,0003.54,0003.07
2021-09-30 03:11:00,,0830.6,5.01,0.00,30.2,29.4,00.0,39.4,31.9,18.5,0000.0,0008.63,0003.55,0003.08
2021-09-30 03:12:00,,0830.6,4.99,0.00,30.3,29.4,00.0,39.4,32.0,18.3,0000.0,0008.58,0003.57,0003.08
2021-09-30 03:13:00,,0830.6,4.99,0.00,30.3,29.4,00.0,39.4,32.0,18.4,0000.0,0008.41,0003.54,0003.08
2021-09-30 03:14:00,,0830.6,5.01,0.00,30.3,29.4,00.0,39.4,32.0,18.3,0000.0,0007.98,0003.54,0003.09
2021-09-30 03:15:00,,0830.7,5.00,0.00,30.3,29.4,00.0,39.4,32.0,18.3,0000.0,0007.44,0003.53,0003.09
2021-09-30 03:16:00,,0830.8,4.99,0.00,30.2,29.4,00.0,39.4,32.0,18.0,0000.0,0007.30,0003.50,0003.09
2021-09-30 03:17:00,,0830.8,5.00,0.00,30.2,29.4,00.0,39.4,32.0,18.1,0000.0,0007.39,0003.51,0003.09
2021-09-30 03:18:00,,0830.8,5.01,0.00,30.2,29.4,00.0,39.4,31.9,18.1,0000.0,0007.24,0003.50,0003.08
2021-09-30 03:19:00,,0830.7,4.98,0.00,30.2,29.4,00.0,39.3,32.0,18.1,0000.0,0007.23,0003.50,0003.08
2021-09-30 03:20:00,,0830.8,4.99,0.00,30.2,29.4,00.0,39.3,32.0,18.2,0000.0,0007.94,0003.52,0003.09
2021-09-30 03:21:00,,0830.8,5.01,0.00,30.2,29.4,00.0,39.3,31.9,18.2,0000.0,0007.66,0003.53,0003.09
2021-09-30 03:22:00,,0830.8,4.99,0.00,30.2,29.4,00.0,39.3,31.9,18.3,0000.0,0007.60,0003.54,0003.09
2021-09-30 03:23:00,,0830.9,4.99,0.00,30.2,29.4,00.0,39.3,31.9,18.3,0000.0,0007.53,0003.51,0003.10
2021-09-30 03:24:00,,0830.9,5.00,0.00,30.2,29.4,00.0,39.3,31.9,18.3,0000.0,0007.45,0003.53,0003.11
2021-09-30 03:25:00,,0830.9,5.00,0.00,30.1,29.3,00.0,39.3,31.9,18.2,0000.0,0007.46,0003.53,0003.11
2021-09-30 03:26:00,,0830.9,5.01,0.00,30.1,29.3,00.0,39.3,31.9,18.3,0000.0,0007.39,0003.50,0003.12
2021-09-30 03:27:00,,0830.9,5.01,0.00,30.1,29.3,00.0,39.3,31.9,18.4,0000.0,0007.40,0003.51,0003.13
2021-09-30 03:28:00,,0830.9,4.99,0.00,30.1,29.3,00.0,39.3,31.9,18.5,0000.0,0007.31,0003.51,0003.13
2021-09-30 03:29:00,,0831.0,5.00,0.00,30.1,29.3,00.0,39.3,31.8,18.4,0000.0,0007.81,0003.53,0003.15
2021-09-30 03:30:00,,0830.9,5.00,0.00,30.1,29.3,00.0,39.3,31.8,18.4,0000.0,0007.95,0003.55,0003.16
2021-09-30 03:31:00,,0831.0,5.01,0.00,30.1,29.3,00.0,39.3,31.8,18.6,0000.0,0007.47,0003.54,0003.16
2021-09-30 03:32:00,,0831.0,5.00,0.00,30.1,29.3,00.0,39.2,31.8,18.6,0000.0,0007.57,0003.54,0003.15
2021-09-30 03:33:00,,0831.0,5.00,0.00,30.1,29.3,00.0,39.2,31.9,18.2,0000.0,0007.53,0003.51,0003.15
2021-09-30 03:34:00,,0831.0,4.99,0.00,30.1,29.3,00.0,39.2,31.8,18.2,0000.0,0007.74,0003.53,0003.14
2021-09-30 03:35:00,,0831.0,5.00,0.00,30.1,29.3,00.0,39.2,31.8,18.6,0000.0,0007.76,0003.52,0003.14
2021-09-30 03:36:00,,0831.0,5.00,0.00,30.1,29.3,00.0,39.2,31.8,18.7,0000.0,0007.96,0003.52,0003.13
2021-09-30 03:37:00,,0831.0,5.00,0.00,30.0,29.2,00.0,39.2,31.8,18.8,0000.0,0008.12,0003.56,0003.13
2021-09-30 03:38:00,,0831.0,5.00,0.00,30.0,29.2,00.0,39.2,31.7,18.9,0000.0,0008.57,0003.58,0003.13
2021-09-30 03:39:00,,0831.1,4.99,0.00,30.0,29.1,00.0,39.2,31.7,18.9,0000.0,0008.64,0003.60,0003.14
2021-09-30 03:40:00,,0831.0,5.00,0.00,29.9,29.1,00.0,39.1,31.6,18.8,0000.0,0008.21,0003.59,0003.13
2021-09-30 03:41:00,,0831.0,5.01,0.00,29.9,29.0,00.0,39.1,31.6,18.9,0000.0,0008.48,0003.57,0003.13
2021-09-30 03:42:00,,0831.0,4.98,0.00,29.9,29.0,00.0,39.1,31.5,18.8,0000.0,0008.15,0003.54,0003.10
2021-09-30 03:43:00,,0831.0,5.01,0.00,29.9,29.0,00.0,39.1,31.5,19.0,0000.0,0008.22,0003.53,0003.09
2021-09-30 03:44:00,,0831.0,5.00,0.00,29.9,29.0,00.0,39.1,31.5,19.1,0000.0,0008.35,0003.56,0003.10
2021-09-30 03:45:00,,0831.0,5.00,0.00,29.8,29.0,00.0,39.1,31.5,19.0,0000.0,0008.30,0003.55,0003.11
2021-09-30 03:46:00,,0831.0,4.99,0.00,29.8,29.0,00.0,39.0,31.5,19.1,0000.0,0008.29,0003.54,0003.10
2021-09-30 03:47:00,,0831.0,5.01,0.00,29.8,29.0,00.0,39.0,31.5,19.0,0000.0,0008.00,0003.51,0003.07
2021-09-30 03:48:00,,0831.1,4.99,0.00,29.8,29.0,00.0,39.0,31.5,19.1,0000.0,0007.92,0003.46,0003.05
2021-09-30 03:49:00,,0831.1,5.01,0.00,29.8,29.0,00.0,39.0,31.5,19.1,0000.0,0007.56,0003.46,0003.03
2021-09-30 03:50:00,,0831.2,5.00,0.00,29.8,29.0,00.0,39.0,31.4,19.1,0000.0,0007.50,0003.45,0002.99
2021-09-30 03:51:00,,0831.2,4.99,0.00,29.7,29.0,00.0,38.9,31.4,19.3,0000.0,0007.21,0003.42,0002.96
2021-09-30 03:52:00,,0831.2,4.99,0.00,29.7,28.9,00.0,38.9,31.4,19.4,0000.0,0006.60,0003.42,0002.93
2021-09-30 03:53:00,,0831.2,5.00,0.00,29.7,29.0,00.0,38.9,31.4,19.3,0000.0,0006.58,0003.41,0002.88
2021-09-30 03:54:00,,0831.2,5.01,0.00,29.7,28.9,00.0,38.9,31.4,19.0,0000.0,0006.15,0003.35,0002.80
2021-09-30 03:55:00,,0831.2,5.00,0.00,29.7,28.9,00.0,38.9,31.3,19.1,0000.0,0005.80,0003.27,0002.71
2021-09-30 03:56:00,,0831.2,5.00,0.00,29.7,28.9,00.0,38.9,31.3,19.3,0000.0,0005.51,0003.20,0002.61
2021-09-30 03:57:00,,0831.2,4.99,0.00,29.7,28.9,00.0,38.9,31.3,19.3,0000.0,0005.38,0003.16,0002.51
2021-09-30 03:58:00,,0831.3,5.01,0.00,29.7,28.9,00.0,38.9,31.3,19.3,0000.0,0005.17,0003.11,0002.42
2021-09-30 03:59:00,,0831.3,5.00,0.00,29.6,28.9,00.0,38.9,31.3,19.3,0000.0,0005.02,0003.06,0002.33
